www.pogodaiklimat.ru

Погода и климат >> Архив погоды >> Великобритания >> London


АРХИВ ПОГОДЫ в London

Время (UTC), дата Ветер
(напр.,м/с)
 
Видим.   Явления Облачность Т
(С)
Тd
(С)
f
(%)
Тe
(С)
Тes
(С)
Комфортность P
(гПа)
Po
(гПа)
Тmin
(С)
Tmax
(С)
R
(мм)
R24
(мм)
S
(см)
14 8.12 СЗ 7-12
{13}
25 км н/о +4.5 -1.9 63 -1 -1 по сезону 1016.9 1013.8
13 8.12 З 8
{14}
35 км н/о +4.3 -2.3 62 -1 -1 по сезону 1016.5 1013.4
15 8.12 З 8-13
{13}
30 км н/о +4.1 -2.9 60 -2 -2 холодно 1017.3 1014.2
16 8.12 З 6
{13}
50 км н/о +3.1 -2.3 68 -2 -2 по сезону 1017.5 1014.4
17 8.12 З 6 50 км н/о +2.3 -2.2 72 -4 -4 прохладно 1018.0 1014.8
18 8.12 З 4 50 км н/о +1.7 -2.2 75 -3 -3 холодно 1018.2 1015.0 +4.6
20 8.12 З 5 45 км н/о +1.1 -1.4 83 -5 -5 по сезону 1018.5 1015.3
19 8.12 З 5 45 км н/о +1.5 -1.5 80 -4 -4 прохладно 1018.8 1015.6
21 8.12 З 5 35 км н/о +1.7 -2.2 75 -4 -4 холодно 1018.8 1015.6
22 8.12 З 5 40 км н/о +1.4 -2.3 76 -4 -4 по сезону 1018.8 1015.7
23 8.12 З 5 40 км н/о +1.2 -2.2 78 -4 -4 прохладно 1018.9 1015.7
00 9.12 З 5 35 км н/о +1.0 -2.5 77 -4 -4 холодно 1019.2 1016.0
02 9.12 З 5 40 км н/о +0.7 -2.5 79 -5 -5 по сезону 1019.1 1015.9
01 9.12 З 4 40 км н/о 0.0 -2.7 82 -5 -5 прохладно 1019.4 1016.2
03 9.12 З 3 40 км н/о +0.2 -2.5 82 -4 -4 холодно 1019.2 1016.0
04 9.12 З 4 35 км н/о -0.7 -3.0 84 -6 -6 по сезону 1018.8 1015.6
05 9.12 З 5 45 км н/о -0.3 -2.3 86 -6 -6 прохладно 1018.7 1015.5
06 9.12 З 5 45 км н/о -0.4 -2.6 85 -6 -6 очень
холодно
1018.6 1015.4 -0.7
08 9.12 З 5 29 км н/о -0.9 -2.9 86 -7 -7 прохладно 1018.6 1015.4
07 9.12 З 5 35 км н/о -1.0 -2.8 88 -7 -7 холодно 1018.7 1015.6
09 9.12 ЮЗ 3 26 км н/о +0.2 -2.0 85 -5 -5 очень
холодно
1018.6 1015.5
10 9.12 З 6 25 км н/о +1.2 -1.8 80 -5 -5 прохладно 1018.3 1015.2
11 9.12 З 5 35 км н/о +2.4 -1.4 76 -3 -3 прохладно 1017.6 1014.5
12 9.12 З 5 20 км н/о +4.0 -0.9 70 -1 -1 холодно 1016.6 1013.5
14 9.12 З 5 45 км н/о +3.7 -1.0 71 -1 -1 по сезону 1014.4 1011.3
13 9.12 З 4 21 км н/о +3.5 -1.3 71 -1 -1 по сезону 1015.8 1012.7
15 9.12 З 5 29 км н/о +3.3 -1.1 73 -2 -2 холодно 1013.5 1010.4
16 9.12 ЮЗ 4 30 км н/о +2.7 -0.9 77 -2 -2 по сезону 1012.9 1009.8
17 9.12 ЮЗ 4 25 км н/о +2.0 -1.1 80 -3 -3 прохладно 1012.3 1009.2
18 9.12 ЮЗ 4 21 км н/о +2.0 -1.0 80 -3 -3 холодно 1011.6 1008.4 +4.0
20 9.12 ЮЗ 3 20 км н/о +2.5 -1.2 77 -2 -2 по сезону 1009.5 1006.4
19 9.12 ЮЗ 3 18 км н/о +2.4 -1.0 78 -2 -2 по сезону 1010.7 1007.5
21 9.12 ЮЗ 3 22 км н/о +2.5 -1.5 75 -2 -2 холодно 1008.4 1005.2
22 9.12 Ю 2 19 км н/о +1.4 -2.3 76 -2 -2 по сезону 1006.8 1003.7
23 9.12 Ю 2 15 км н/о +0.1 -2.5 83 -3 -3 по сезону 1005.1 1002.0
00 10.12 ЮВ 2 18 км н/о +0.8 -2.0 82 -2 -2 прохладно 1003.4 1000.3
02 10.12 В 4 22 км осадки н/о +1.7 -1.9 77 -3 -3 по сезону 998.2 995.1
01 10.12 0 19 км н/о +1.0 -1.8 82 1001.0 997.9
03 10.12 ЮВ 4 13 км слаб. ливневой дождь н/о +2.1 -0.8 81 -3 -3 холодно 995.4 992.3
04 10.12 В 4 8000 м дождь н/о +2.1 +1.2 94 -3 -3 по сезону 991.9 988.8
05 10.12 В 5 6000 м дождь н/о +2.3 +1.9 97 -4 -4 прохладно 988.6 985.5
06 10.12 В 5 3900 м дождь н/о +2.4 +2.1 98 -3 -3 холодно 984.6 981.6 0.0 5
08 10.12 В 5 2500 м снег н/о +0.7 +0.3 97 -6 -6 по сезону 976.8 973.8
07 10.12 В 6 8000 м дождь н/о +1.9 +1.3 96 -4 -4 прохладно 980.9 977.9
09 10.12 СВ 3 2600 м снег н/о +0.5 +0.3 99 -4 -4 холодно 974.6 971.6 1
10 10.12 С 3 27 км слаб. дождь н/о +0.6 +0.4 99 -4 -4 по сезону 973.7 970.7 1
11 10.12 СВ 2 2800 м слаб. дождь н/о +0.8 +0.6 99 -3 -3 прохладно 973.0 969.9 1
12 10.12 В 3 9000 м слаб. дождь со снегом н/о +0.8 +0.5 98 -4 -4 очень
холодно
972.0 969.0 10 1
14 10.12 З 4 3300 м снег н/о +0.6 +0.4 99 -5 -5 по сезону 975.8 972.8 1
13 10.12 СЗ 3 2900 м дождь н/о +0.7 +0.4 98 -4 -4 прохладно 973.8 970.8 1
15 10.12 З 4 14 км слаб. морось н/о +1.1 +0.8 98 -4 -4 очень
холодно
977.0 974.0 1
16 10.12 З 3 19 км в посл. час дождь н/о +1.2 +0.7 96 -3 -3 по сезону 978.1 975.0 1
17 10.12 З 3 11 км слаб. морось н/о +1.4 +0.7 95 -3 -3 прохладно 978.9 975.8 1
18 10.12 З 2 7000 м слаб. дождь н/о +1.3 +0.7 96 -2 -2 холодно 979.5 976.4 +2.4 15 1
20 10.12 СВ 2 12 км н/о +1.2 +0.7 96 -2 -2 по сезону 980.5 977.4 1
19 10.12 З 2 7000 м в посл. час дождь н/о +1.0 +0.6 97 -2 -2 по сезону 980.0 977.0 1
21 10.12 СВ 2 8000 м дымка н/о +1.4 +0.8 96 -2 -2 холодно 980.7 977.7 1
22 10.12 СВ 3 8000 м дымка н/о +1.4 +0.9 96 -3 -3 по сезону 981.1 978.0 1
23 10.12 СВ 3 4700 м дымка н/о +1.3 +0.9 97 -3 -3 по сезону 981.0 977.9
00 11.12 СВ 2 4400 м дымка н/о +1.3 +1.0 98 -2 -2 прохладно 981.8 978.8 0.4
02 11.12 СВ 3 4600 м дымка н/о +1.1 +0.8 98 -3 -3 по сезону 981.7 978.6
01 11.12 СВ 3 3500 м дымка н/о +1.1 +0.8 98 -3 -3 по сезону 981.1 978.0
03 11.12 СВ 4 5000 м дымка н/о +1.0 +0.7 98 -4 -4 холодно 981.1 978.1
04 11.12 СВ 4 6000 м дымка н/о +0.9 +0.7 99 -4 -4 по сезону 979.5 976.4
05 11.12 СВ 5 9000 м дымка н/о +1.4 +0.9 96 -4 -4 по сезону 978.7 975.6
06 11.12 СВ 5 6000 м ливневой дождь н/о +2.0 +1.2 94 -4 -4 холодно 978.7 975.7 +0.7 0.4
08 11.12 СВ 7 8000 м дождь н/о +2.5 +1.5 93 -4 -4 по сезону 979.5 976.5
07 11.12 СВ 6 4200 м дождь н/о +2.0 +1.1 94 -4 -4 прохладно 979.2 976.2
09 11.12 СВ 7-12
{13}
7000 м дождь н/о +2.5 +1.6 94 -4 -4 холодно 980.2 977.2
10 11.12 С 5 9000 м дождь н/о +2.5 +1.7 94 -3 -3 по сезону 980.7 977.7
11 11.12 С 6 6000 м дождь н/о +2.4 +1.6 94 -4 -4 холодно 981.7 978.7
12 11.12 С 6 4800 м дождь н/о +2.1 +1.4 95 -4 -4 очень
холодно
982.5 979.4 6
14 11.12 С 5 30 км в посл. час дождь н/о +3.0 +0.9 86 -2 -2 по сезону 984.4 981.4
13 11.12 С 6 6000 м дождь н/о +2.2 +1.3 94 -4 -4 прохладно 983.5 980.5
15 11.12 С 6
{13}
35 км н/о +3.4 +0.1 79 -2 -2 холодно 985.8 982.8
16 11.12 С 5 50 км н/о +2.8 -0.7 78 -2 -2 по сезону 987.4 984.3
17 11.12 СЗ 5 35 км н/о +2.3 -1.1 78 -3 -3 прохладно 989.1 986.1
18 11.12 СЗ 4 30 км н/о +1.6 -1.0 83 -4 -4 очень
холодно
991.0 987.9 +3.5 8
20 11.12 СЗ 4 45 км н/о +0.9 -2.3 79 -4 -4 по сезону 994.4 991.3
19 11.12 СЗ 4 40 км н/о +1.3 -1.6 81 -3 -3 прохладно 992.7 989.6
21 11.12 З 4 45 км н/о +0.6 -3.3 75 -5 -5 очень
холодно
996.2 993.1
22 11.12 З 5 45 км н/о +0.1 -3.8 75 -6 -6 по сезону 997.4 994.3
23 11.12 СЗ 5 30 км н/о -0.5 -3.3 81 -7 -7 холодно 998.3 995.1
00 12.12 СЗ 4 21 км н/о -0.8 -3.2 84 -6 -6 очень
холодно
999.4 996.3
02 12.12 СЗ 3 18 км н/о -1.5 -3.5 86 -7 -7 по сезону 1001.9 998.7
01 12.12 З 3 19 км н/о -1.2 -3.3 86 -6 -6 прохладно 1000.3 997.1
03 12.12 З 3 9000 м дым н/о -3.1 -4.1 93 -8 -8 очень
холодно
1003.2 1000.1
04 12.12 З 3 14 км н/о -1.8 -3.5 88 -7 -7 по сезону 1004.3 1001.1
05 12.12 З 3 11 км дым н/о -2.2 -3.1 94 -8 -8 холодно 1005.4 1002.2 1
06 12.12 З 2 12 км н/о -2.2 -3.1 94 -6 -6 очень
холодно
1005.7 1002.5 -3.4 1
08 12.12 З 3 8000 м дым н/о -2.9 -4.1 91 -8 -8 прохладно 1008.3 1005.1 1
07 12.12 З 3 10 км н/о -2.3 -3.2 94 -7 -7 холодно 1006.8 1003.6 1
09 12.12 З 4 10 км н/о -1.9 -2.7 94 -8 -8 очень
холодно
1009.1 1006.0 1
10 12.12 Ю 2 11 км н/о +0.3 -1.7 86 -3 -3 по сезону 1009.4 1006.2 1
11 12.12 ЮЗ 2 21 км н/о +1.6 -1.2 82 -2 -2 прохладно 1010.2 1007.0 1
12 12.12 ЮЗ 2 13 км н/о +3.0 -0.3 79 0 0 прохладно 1009.9 1006.8 1
14 12.12 Ю 3 35 км н/о +4.2 +0.3 76 +1 +1 по сезону 1009.7 1006.6
13 12.12 З 3 50 км н/о +4.1 0.0 75 +1 +1 по сезону 1009.8 1006.7 1
15 12.12 Ю 3 30 км н/о +3.6 +0.1 78 -0 -0 прохладно 1010.1 1006.9
16 12.12 ЮЗ 4 35 км н/о +3.6 0.0 77 -1 -1 по сезону 1010.2 1007.1
17 12.12 Ю 3 40 км н/о +3.1 +0.2 81 -1 -1 по сезону 1009.8 1006.7
18 12.12 Ю 4 30 км н/о +2.9 +0.1 82 -2 -2 холодно 1009.5 1006.4 +4.6
20 12.12 Ю 4 30 км н/о +3.8 +1.0 82 -0 -0 по сезону 1009.2 1006.1
19 12.12 Ю 4 30 км н/о +3.8 +1.0 82 -0 -0 по сезону 1009.2 1006.1
21 12.12 Ю 4 30 км н/о +4.9 +2.2 83 +1 +1 по сезону 1008.0 1004.9
22 12.12 Ю 3 12 км ливневой дождь н/о +5.5 +3.9 89 +2 +2 тепло 1006.8 1003.7
23 12.12 Ю 4 7000 м слаб. дождь н/о +6.1 +5.0 93 +2 +2 по сезону 1006.0 1002.9
00 13.12 Ю 5 7000 м дождь н/о +5.9 +4.9 93 +1 +1 по сезону 1004.6 1001.6 1
02 13.12 Ю 6 5000 м дождь н/о +7.5 +7.2 98 +3 +3 тепло 1002.0 999.0
01 13.12 Ю 6 5000 м слаб. морось н/о +6.6 +6.3 98 +2 +2 по сезону 1003.3 1000.3
03 13.12 ЮЗ 5 5000 м слаб. морось н/о +7.8 +7.6 99 +4 +4 по сезону 1001.3 998.3
04 13.12 ЮЗ 4 35 км в посл. час морось н/о +8.0 +7.3 95 +4 +4 тепло 1000.6 997.6
05 13.12 З 5 19 км н/о +7.3 +5.6 89 +3 +3 тепло 1001.0 998.0
06 13.12 З 4 22 км н/о +6.0 +4.4 89 +2 +2 по сезону 1001.1 998.1 +2.7 3
08 13.12 З 4 17 км н/о +5.6 +4.1 90 +1 +1 тепло 1000.9 997.8
07 13.12 З 3 20 км н/о +5.3 +4.1 92 +2 +2 по сезону 1001.0 998.0
09 13.12 ЮЗ 5 13 км в посл. час дождь н/о +6.5 +5.1 91 +2 +2 по сезону 1000.2 997.1
10 13.12 ЮЗ 5 11 км слаб. ливневой дождь н/о +6.9 +5.9 93 +3 +3 тепло 999.5 996.5
11 13.12 ЮЗ 6 10 км слаб. дождь н/о +7.3 +6.4 94 +3 +3 по сезону 998.3 995.3
12 13.12 Ю 4 16 км слаб. дождь н/о +7.7 +6.5 92 +4 +4 по сезону 996.5 993.4 0.6
14 13.12 ЮЗ 7 16 км в посл. час дождь н/о +9.3 +7.5 89 +5 +5 тепло 992.4 989.4
13 13.12 ЮЗ 5 19 км в посл. час дождь н/о +8.3 +7.1 92 +4 +4 по сезону 994.5 991.5
15 13.12 ЮЗ 7 24 км в посл. час дождь н/о +9.3 +7.0 86 +5 +5 по сезону 990.9 987.9
16 13.12 З 7-14
{20}
50 км в посл. час дождь н/о +7.2 +3.6 78 +3 +3 тепло 991.7 988.6
17 13.12 З 7-12
{13}
40 км н/о +5.8 +1.6 74 +1 +1 по сезону 992.2 989.2
18 13.12 З 7 40 км н/о +4.4 +1.7 83 -1 -1 прохладно 992.0 989.0 +9.7 4
20 13.12 Ю 4 28 км н/о +4.5 +1.8 83 0 0 по сезону 991.1 988.1
19 13.12 З 7 25 км н/о +4.5 +1.9 83 -1 -1 по сезону 991.6 988.5
21 13.12 З 9-18
{18}
600 м ливневой дождь н/о +3.3 +1.4 87 -4 -4 холодно 991.2 988.1
22 13.12 З 7
{16}
45 км в посл. час дождь н/о +3.9 +2.5 91 -2 -2 по сезону 990.0 986.9
23 13.12 З 10
{14}
50 км в посл. час дождь н/о +4.1 +1.4 83 -3 -3 по сезону 991.1 988.1
00 14.12 З 9
{15}
45 км н/о +3.6 0.0 77 -3 -3 прохладно 992.3 989.3 3
02 14.12 З 8 29 км н/о +3.3 +0.5 82 -3 -3 по сезону 993.5 990.4
01 14.12 З 8 35 км н/о +2.7 +0.1 83 -4 -4 по сезону 993.1 990.0
03 14.12 З 9
{13}
29 км н/о +3.9 +0.9 81 -3 -3 прохладно 993.5 990.4
04 14.12 З 7
{13}
22 км н/о +4.3 +1.1 80 -1 -1 тепло 993.5 990.5
05 14.12 З 9
{13}
24 км н/о +4.2 +1.3 81 -2 -2 по сезону 993.3 990.2
06 14.12 ЮЗ 9 21 км н/о +3.9 +1.2 83 -3 -3 прохладно 992.9 989.9 +2.6 3
08 14.12 ЮЗ 7 20 км н/о +4.1 +1.2 81 -2 -2 по сезону 993.1 990.0
07 14.12 ЮЗ 7 20 км н/о +3.8 +0.8 81 -2 -2 по сезону 993.0 989.9
09 14.12 З 7 30 км н/о +3.6 +0.9 82 -2 -2 прохладно 992.9 989.8
10 14.12 ЮЗ 8 30 км н/о +5.0 +1.8 80 -1 -1 по сезону 992.9 989.8
11 14.12 ЮЗ 7 24 км н/о +5.8 +1.8 75 +1 +1 по сезону 992.2 989.2
12 14.12 ЮЗ 7
{13}
23 км н/о +6.2 +1.9 74 +1 +1 прохладно 991.7 988.6
14 14.12 ЮЗ 6 30 км н/о +6.1 +1.5 72 +2 +2 тепло 990.2 987.2
13 14.12 З 8 29 км н/о +5.9 +1.4 73 +1 +1 по сезону 990.8 987.8
15 14.12 З 7 30 км н/о +5.5 +1.2 74 +1 +1 прохладно 989.4 986.4
16 14.12 З 6 30 км н/о +4.1 +1.1 81 -1 -1 по сезону 989.4 986.4
17 14.12 ЮЗ 5 27 км н/о +3.4 +1.1 85 -2 -2 по сезону 988.9 985.9
18 14.12 ЮЗ 4 35 км н/о +3.0 +0.9 86 -2 -2 холодно 988.6 985.5 +6.9
20 14.12 З 5 22 км н/о +3.0 +1.2 88 -2 -2 по сезону 989.0 985.9
19 14.12 ЮЗ 5 27 км н/о +3.0 +1.1 87 -2 -2 по сезону 988.6 985.5
21 14.12 ЮЗ 4 21 км н/о +2.8 +1.2 89 -2 -2 прохладно 988.8 985.7
22 14.12 З 4 17 км н/о +2.5 +0.7 88 -2 -2 по сезону 989.1 986.1
23 14.12 З 5 20 км н/о +3.0 +1.7 91 -2 -2 по сезону 989.7 986.7
00 15.12 З 5 19 км н/о +2.3 +1.2 92 -3 -3 прохладно 990.2 987.1
02 15.12 З 5 35 км н/о +1.6 +0.4 92 -4 -4 по сезону 990.5 987.4
01 15.12 З 4 18 км н/о +1.3 +0.8 96 -4 -4 по сезону 990.6 987.5
03 15.12 З 5 35 км н/о +2.5 +1.1 90 -3 -3 прохладно 990.7 987.6
04 15.12 ЮЗ 4 28 км н/о +2.8 +1.3 90 -2 -2 по сезону 990.6 987.6
05 15.12 З 5 24 км н/о +2.8 +1.4 90 -2 -2 по сезону 990.5 987.4
06 15.12 З 3 23 км н/о +3.1 +2.0 92 -1 -1 по сезону 990.7 987.7 +0.9
08 15.12 СЗ 3 7000 м в посл. час дождь н/о +2.8 +2.0 94 -1 -1 по сезону 993.8 990.8
07 15.12 СЗ 4 3700 м ливневой дождь н/о +3.2 +2.3 94 -1 -1 по сезону 992.0 989.0
09 15.12 СЗ 3 15 км в посл. час осадки н/о +3.0 +1.8 92 -1 -1 прохладно 995.5 992.4
10 15.12 СЗ 5 25 км н/о +3.2 +1.4 88 -2 -2 по сезону 996.9 993.9
11 15.12 СЗ 5 30 км н/о +4.0 +1.7 85 -1 -1 по сезону 998.0 994.9
12 15.12 СЗ 6 30 км н/о +5.1 +1.2 76 0 0 прохладно 998.8 995.8 1
13 15.12 СЗ 5 30 км н/о +5.6 +1.0 72 +1 +1 тепло 999.6 996.5

 

Местоположение метеостанции London (Великобритания): широта 51.48 долгота -0.45 высота над уровнем моря 25 м.

В архиве по умолчанию представлена погода в London за последнюю неделю. Архивные данные за месяц целиком и за предыдущие месяцы, начиная с января 2011 года, Вы можете получить, выбрав интересующий диапазон дат из раскрывающегося списка и нажав кнопку "Ввод!".

Внимание! Время в таблицах - всемирное. Для получения местного времени необходимо прибавить поправку, которая в London равна 0 ч.

Смотрите также архив погоды в соседних городах и на ближайших метеорологических станциях:

Погода в Northolt (Великобритания) (8 км)
Погода в London, St James Park (Великобритания) (23 км)
Погода в Charlwood (Великобритания) (28 км)
Погода в Farnborough (Великобритания) (31 км)
Погода в Kenley Airfield (Великобритания) (33 км)
Погода в High Wycombe Hqstc (Великобритания) (33 км)
Погода в Odiham (Великобритания) (44 км)
Погода в Benson (Великобритания) (46 км)
Погода в Gravesend-Broadness (Великобритания) (52 км)
Погода в Rothamsted (Великобритания) (66 км)

Пояснения к столбцам:

Ветер - указаны скорость ветра в м/с - средняя за 10 мин, порывы в срок и между сроками (в фигурных скобках) и направление, откуда дует ветер: С - северный, СВ - северо-восточный, В - восточный, ЮВ - юго-восточный, Ю - южный, ЮЗ - юго-западный, З - западный, СЗ - северо-западный.
Видимость - горизонтальная дальность видимости в метрах или километрах. При видимости от 1 до 10 км при отсутствии осадков обычно наблюдается дымка, при ухудшении видимости до 1 км и менее - туман. В сухую погоду видимость может ухудшаться дымом, пылью или мглою.
Явления - указаны атмосферные явления, наблюдавшиеся в срок или в последний час перед сроком; фигурными скобками обозначены явления, наблюдавшиеся между сроками (за 1-3 часа до срока); квадратными скобками обозначены град или гололедные отложения с указанием их диаметра в мм.
Облачность - указаны через наклонную черту общая и нижняя облачность в баллах и высота нижней границы облаков в метрах; квадратными скобками обозначены формы облаков: Ci - перистые, Cs - перисто-слоистые, Cc - перисто-кучевые, Ac - высококучевые, As - высокослоистые, Sc - слоисто-кучевые, Ns - слоисто-дождевые, Cu - кучевые, Cb - кучево-дождевые. Подробнее классификацию облаков см. в Атласе облаков (PDF).
T - Температура воздуха - температура, измеренная на высоте 2 м над землей.
Td - Температура точки росы - температура, при понижении до которой содержащийся в воздухе водяной пар достигнет насыщения.
f - Относительная влажность воздуха - влажноcть воздуха, измеренная на высоте 2 м над землей.
Te - Эффективная температура - температура, которую ощущает одетый по сезону человек в тени. Характеристика душности погоды. При расчете учитывается влияние влажности воздуха и скорости ветра на теплоощущения человека.
Tes - Эффективная температура на солнце - температура, которую ощущает человек, с поправкой на солнечный нагрев. Характеристика знойности погоды. Зависит от высоты солнца над горизонтом, облачности и скорости ветра. Ночью, в пасмурную погоду, а также при ветре 12 м/с и более поправка равна нулю.
P - Атмосферное давление - приведенное к уровню моря атмосферное давление.
Po - Атмосферное давление - измеренное на уровне метеостанции атмосферное давление.
Tmin - Минимальная температура - минимум температуры воздуха на высоте 2 м над землей.
Tmax - Максимальная температура - максимум температуры воздуха на высоте 2 м над землей.
R - Количество осадков - Количество выпавших осадков за период времени, мм. При наведении курсора мыши на число - период времени, за который выпало указанное количество осадков.
R24 - Количество осадков - Количество выпавших осадков за 24 часа, мм.
S - Снежный покров - Высота снежного покрова, см. При наведении курсора мыши на число - состояние снежного покрова и степень покрытия местности в баллах.